Time,TemperatureF,DewpointF,PressureIn,WindDirection,WindDirectionDegrees,WindSpeedMPH,WindSpeedGustMPH,Humidity,HourlyPrecipIn,Conditions,Clouds,dailyrainin,SoftwareType,DateUTC
2013-10-08 00:11:00,43.0,27.0,-100.00,NNW,330,14.0,26.0,54,-99.99,,,-99.99,,2013-10-08 07:11:00,
2013-10-08 00:42:00,43.0,28.0,-100.00,NW,325,14.0,27.0,55,-99.99,,,-99.99,,2013-10-08 07:42:00,
2013-10-08 00:52:00,42.0,28.0,-100.00,NNW,330,15.0,27.0,57,-99.99,,,-99.99,,2013-10-08 07:52:00,
2013-10-08 01:02:00,42.0,28.0,-100.00,NNW,330,15.0,27.0,57,-99.99,,,-99.99,,2013-10-08 08:02:00,
2013-10-08 01:42:00,42.0,28.0,-100.00,NNW,340,19.0,29.0,58,-99.99,,,-99.99,,2013-10-08 08:42:00,
2013-10-08 01:52:00,42.0,28.0,-100.00,NW,325,17.0,26.0,59,-99.99,,,-99.99,,2013-10-08 08:52:00,
2013-10-08 02:12:00,41.0,28.0,-100.00,NNW,330,17.0,30.0,60,-99.99,,,-99.99,,2013-10-08 09:12:00,
2013-10-08 03:12:00,40.0,29.0,-100.00,NNW,340,13.0,26.0,63,-99.99,,,-99.99,,2013-10-08 10:12:00,
2013-10-08 03:42:00,40.0,30.0,-100.00,NNW,340,16.0,25.0,66,-99.99,,,-99.99,,2013-10-08 10:42:00,
2013-10-08 04:12:00,40.0,30.0,-100.00,NNW,340,17.0,28.0,67,-99.99,,,-99.99,,2013-10-08 11:12:00,
2013-10-08 04:42:00,40.0,30.0,-100.00,NNW,335,18.0,29.0,67,-99.99,,,-99.99,,2013-10-08 11:42:00,
2013-10-08 05:21:00,39.0,30.0,-100.00,NNW,345,19.0,29.0,68,-99.99,,,-99.99,,2013-10-08 12:21:00,
2013-10-08 05:42:00,39.0,30.0,-100.00,NNW,335,19.0,29.0,70,-99.99,,,-99.99,,2013-10-08 12:42:00,
2013-10-08 05:52:00,39.0,30.0,-100.00,NNW,330,17.0,32.0,71,-99.99,,,-99.99,,2013-10-08 12:52:00,
2013-10-08 06:01:00,39.0,30.0,-100.00,NNW,330,17.0,32.0,71,-99.99,,,-99.99,,2013-10-08 13:01:00,
2013-10-08 06:52:00,38.0,30.0,-100.00,NNW,340,21.0,30.0,74,-99.99,,,-99.99,,2013-10-08 13:52:00,
2013-10-08 07:11:00,38.0,31.0,-100.00,North,0,17.0,29.0,75,-99.99,,,-99.99,,2013-10-08 14:11:00,
2013-10-08 07:42:00,38.0,31.0,-100.00,NW,325,17.0,30.0,76,-99.99,,,-99.99,,2013-10-08 14:42:00,
2013-10-08 08:11:00,38.0,31.0,-100.00,NNW,345,20.0,29.0,76,-99.99,,,-99.99,,2013-10-08 15:11:00,
2013-10-08 08:44:00,38.0,31.0,-100.00,NNW,330,18.0,31.0,75,-99.99,,,-99.99,,2013-10-08 15:44:00,
2013-10-08 08:53:00,39.0,31.0,-100.00,NNW,345,19.0,30.0,74,-99.99,,,-99.99,,2013-10-08 15:53:00,
2013-10-08 09:03:00,39.0,31.0,-100.00,NNW,345,19.0,30.0,74,-99.99,,,-99.99,,2013-10-08 16:03:00,
2013-10-08 09:42:00,40.0,30.0,-100.00,NNW,340,16.0,29.0,69,-99.99,,,-99.99,,2013-10-08 16:42:00,
2013-10-08 09:53:00,40.0,30.0,-100.00,NW,320,17.0,27.0,68,-99.99,,,-99.99,,2013-10-08 16:53:00,
2013-10-08 10:12:00,40.0,30.0,-100.00,NNW,345,15.0,26.0,66,-99.99,,,-99.99,,2013-10-08 17:12:00,
2013-10-08 11:11:00,43.0,28.0,-100.00,NNW,340,21.0,31.0,55,-99.99,,,-99.99,,2013-10-08 18:11:00,
2013-10-08 11:42:00,43.0,28.0,-100.00,NNW,330,17.0,29.0,55,-99.99,,,-99.99,,2013-10-08 18:42:00,
2013-10-08 12:21:00,46.0,26.0,-100.00,NW,320,16.0,30.0,46,-99.99,,,-99.99,,2013-10-08 19:21:00,
2013-10-08 12:42:00,46.0,25.0,-100.00,NW,325,17.0,26.0,43,-99.99,,,-99.99,,2013-10-08 19:42:00,
2013-10-08 13:22:00,48.0,25.0,-100.00,NNW,340,18.0,30.0,40,-99.99,,,-99.99,,2013-10-08 20:22:00,
2013-10-08 13:42:00,49.0,25.0,-100.00,NNW,330,17.0,28.0,38,-99.99,,,-99.99,,2013-10-08 20:42:00,
2013-10-08 14:21:00,50.0,22.0,-100.00,NNW,335,15.0,27.0,33,-99.99,,,-99.99,,2013-10-08 21:21:00,
2013-10-08 14:44:00,50.0,22.0,-100.00,NW,320,12.0,23.0,33,-99.99,,,-99.99,,2013-10-08 21:44:00,
2013-10-08 15:45:00,51.0,22.0,-100.00,North,0,11.0,22.0,32,-99.99,,,-99.99,,2013-10-08 22:45:00,
2013-10-08 16:12:00,52.0,22.0,-100.00,North,0,12.0,22.0,31,-99.99,,,-99.99,,2013-10-08 23:12:00,
2013-10-08 16:22:00,52.0,22.0,-100.00,North,0,10.0,22.0,30,-99.99,,,-99.99,,2013-10-08 23:22:00,
2013-10-08 16:34:00,52.0,22.0,-100.00,North,0,10.0,22.0,30,-99.99,,,-99.99,,2013-10-08 23:34:00,
2013-10-08 16:52:00,51.0,21.0,-100.00,NNW,330,10.0,22.0,30,-99.99,,,-99.99,,2013-10-08 23:52:00,
2013-10-08 17:02:00,51.0,21.0,-100.00,NNW,330,10.0,22.0,30,-99.99,,,-99.99,,2013-10-09 00:02:00,
2013-10-08 18:43:00,47.0,22.0,-100.00,NNW,330,12.0,23.0,36,-99.99,,,-99.99,,2013-10-09 01:43:00,
2013-10-08 19:42:00,44.0,24.0,-100.00,North,350,5.0,14.0,45,-99.99,,,-99.99,,2013-10-09 02:42:00,
2013-10-08 20:44:00,44.0,26.0,-100.00,North,350,4.0,14.0,48,-99.99,,,-99.99,,2013-10-09 03:44:00,
2013-10-08 21:44:00,44.0,26.0,-100.00,NNW,340,7.0,19.0,50,-99.99,,,-99.99,,2013-10-09 04:44:00,
2013-10-08 21:54:00,44.0,27.0,-100.00,North,5,8.0,21.0,51,-99.99,,,-99.99,,2013-10-09 04:54:00,
2013-10-08 22:04:00,44.0,27.0,-100.00,North,5,8.0,21.0,51,-99.99,,,-99.99,,2013-10-09 05:04:00,
2013-10-08 22:42:00,43.0,28.0,-100.00,North,0,5.0,17.0,54,-99.99,,,-99.99,,2013-10-09 05:42:00,
2013-10-08 22:52:00,43.0,28.0,-100.00,North,0,3.0,14.0,54,-99.99,,,-99.99,,2013-10-09 05:52:00,
2013-10-08 23:02:00,43.0,28.0,-100.00,North,0,3.0,14.0,54,-99.99,,,-99.99,,2013-10-09 06:02:00,
2013-10-08 23:42:00,43.0,28.0,-100.00,NNW,335,11.0,22.0,57,-99.99,,,-99.99,,2013-10-09 06:42:00,